Showing default

CBERS 1, 25940

Orbit data source: Space-Track

CBERS 1, 25940 is a CN and BR payload satellite in SSO that was launched on Thu, 14 Oct 1999 UTC via a CHANG ZHENG 4B launch vehicle from the Taiyaun Space Center, China (TSC). Payload-class satellites include a variety of spacecraft equipped with specific instruments for various scientific and technological missions. These include communications satellites like Starlink; space stations such as the ISS; scientific satellites like the Hubble; Earth observation satellites from companies like Planet Labs, Umbra, and HawkEye 360; GPS; miniature CubeSats for education and research; and military/defense satellites.

Loading next visibility...
Identifier
25940, 1999-057A
Orbit
SSO
Country
Flag of UnknownUnknown / CHBZ
Related business
Manufacturer
CAST
Mission
Civil Imaging
Bus & Motor
ZY, AOCS 20N
Mass
1,540 kg wet, ~1,450 kg dry
Launch date (UTC)
1999-10-14 (26 years ago)
Launch vehicle
CHANG ZHENG 4B
Launch site
Taiyaun Space Center, China (TSC)
Object type
Payload
Rocket body
Debris
Shape & HBR
Box + 1 Pan, 4.5 m
Radar Cross Section
9.469 m², Large (>1 m²)

Expand to show TLE details & history
Last TLE update: 15 hours ago

TLE from 15 hours ago
0 CBERS 1
1 25940U 99057A   25260.98329762  .00000200  00000-0  83511-4 0  9995
2 25940  98.8465 257.9355 0006081  82.5247 277.6629 14.36827583358429
Epoch: 2025-09-17T23:35Z
TLE epoch observation values (Epoch: 2025-09-17T23:35:56.914Z)
Latitude
-0.00002°
Longitude
-93.20306°
Altitude
771.355 km
Speed
7.469 km/s
True Right ascension
17h 11m 44s
True Declination
0° 00' 00"
Sunlit
Object was in daylight at epoch
Visualization orbit readout
Latitude
Unknown
Longitude
Unknown
Altitude
Unknown
Speed
Unknown
Apparent Right ascension
Unknown
Apparent Declination
Unknown
Sunlit
N/A
Visualization observer readout
Local Sidereal Time
07:56:05
Azimuth
Unknown
Elevation
Unknown
Doppler factor
Unknown
Orbital elements
Apogee altitude
770.487 km
Perigee altitude
761.798 km
Semi-major axis
7,144.279 km
Eccentricity
0.00061
Inclination
98.8465°
RAAN
257.9355°
Arg. of periapsis
82.5247°
True anomaly
277.59383°
Mean anomaly
277.6629°
Eccentric anomaly
277.62837°
Mean motion
3.59423 °/min
Orbital period
100.16 mins
BSTAR
0.000083511
Loading maneuver chart data...
Computing Atmospheric mass density...
Loading historical data...
Loading historical data...
Loading historical data...
Loading historical data...
Loading historical data...
Loading historical data...
Loading historical data...

Documentation

Showing up to 5 results
|